Home   Weather   Caxias do Sul   Past weeks

Flag for Brazil Past Weather in Caxias do Sul, Rio Grande do Sul, Brazil — Yesterday and Last 2 Weeks

73 °F


Feels Like: 75 °F
Forecast: N/A
Wind: 9 mph from Southeast

Location: Porto Alegre Aero-Porto

Current Time: Oct 23, 2016 at 9:54:14 PM

Latest Report: Oct 23, 2016 at 9:00 PM

Visibility: 10 mi

Pressure: 29.95 "Hg (27.35 "Hg at 787m altitude)

Humidity: 74%

Dew Point: 64 °F

Location of Caxias do SulLocation

Past Weather in Caxias do Sul — Graph


Caxias do Sul Temperature Yesterday

Maximum temperature yesterday: 73 °F (at 2:00 PM)
Minimum temperature yesterday: 54 °F (at 5:00 AM)
Average temperature yesterday: 64 °F

High & Low Weather Summary for the Past Weeks

High84 °F (Oct 11, 4:00 PM)100% (Oct 17, 6:00 AM)30.27 "Hg (Oct 17, 6:00 AM)
Low32 °F (Oct 17, 9:00 AM)17% (Oct 10, 3:00 PM)29.68 "Hg (Oct 13, 5:00 AM)
Average68 °F74%29.95 "Hg
* Reported Oct 8 7:00 PM — Oct 23 8:00 PM, Caxias do Sul, Weather by CustomWeather, © 2016

Note: Actual official high and low records may vary slightly from our data, if they occured in-between our weather recording intervals... More about our weather records


Caxias do Sul Weather History for the Previous 24 Hours

Scroll right to see more
Time TempWeatherWind HumidityBarometerVisibility
8:00 PM
Sun, Oct 23
75 °FClear.10 mph69%29.92 "Hg10 mi
7:00 PM79 °FSunny.7 mph61%29.92 "Hg10 mi
6:00 PM82 °FSunny.5 mph51%29.92 "Hg10 mi
5:00 PM84 °FSunny.5 mph48%29.92 "Hg10 mi
4:00 PM82 °FSunny.8 mph51%29.95 "Hg10 mi
3:00 PM82 °FSunny.5 mph51%29.98 "Hg10 mi
2:00 PM81 °FSunny.3 mph51%30.01 "Hg10 mi
1:00 PM79 °FScattered clouds.2 mph51%30.04 "HgN/A
12:00 PM75 °FBroken clouds.3 mph57%30.04 "HgN/A
11:00 AM75 °FSunny.5 mph54%30.04 "Hg10 mi
10:00 AM73 °FSunny.6 mph61%30.04 "Hg10 mi
9:00 AM70 °FSunny.5 mph69%30.07 "Hg10 mi
8:00 AM64 °FSunny.6 mph83%30.04 "Hg10 mi
7:00 AM63 °FSunny.5 mph83%30.01 "Hg10 mi
6:00 AM64 °FClear.7 mph78%30.01 "Hg10 mi
5:00 AM64 °FClear.5 mph83%30.04 "Hg10 mi
4:00 AM64 °FClear.5 mph83%30.04 "Hg10 mi
3:00 AM64 °FClear.6 mph83%30.04 "Hg10 mi
2:00 AM64 °FClear.6 mph83%30.04 "Hg10 mi
1:00 AM64 °FClear.13 mph83%30.04 "Hg10 mi
12:00 AM64 °FClear.14 mph83%30.07 "Hg10 mi
11:00 PM
Sat, Oct 22
64 °FClear.17 mph83%30.07 "Hg10 mi
10:00 PM64 °FClear.14 mph83%30.07 "Hg10 mi
9:00 PM66 °FClear.22 mph68%30.07 "Hg10 mi
Weather by CustomWeather, © 2016

See weather overviewHow to use our weather pages